Regional Weather Roundup
Issued by NWS Newport/Morehead, NC

Current Version | Previous Version | Text Only | Print | Product List | Glossary On
Versions: 1 2 3 4 5 6 7 8 9 10 11 12 13 14 15 16 17 18 19 20 21 22 23 24 25 26 27 28 29 30 31 32 33 34 35 36 37 38 39 40 41 42 43 44 45 46 47 48 49 50
825 ASUS42 KMHX 251125 RWRMHX WEATHER ROUNDUP FOR EASTERN NORTH CAROLINA NATIONAL WEATHER SERVICE NEWPORT/MOREHEAD CITY NC 700 AM EDT SUN SEP 25 2016 NOTE: "FAIR" INDICATES FEW OR NO CLOUDS BELOW 12,000 FEET WITH NO SIGNIFICANT WEATHER AND/OR OBSTRUCTIONS TO VISIBILITY NCZ015>017-031-032-045>047-102-103-251200- NORTH COAST CITY SKY/WX TMP DP RH WIND PRES REMARKS EDENTON CLOUDY 70 70 100 CALM 30.15R ELIZABETH CITY CLOUDY 69 63 81 NE10 30.14R KITTY HAWK NOT AVBL MANTEO RAIN 69 64 85 NE10 30.13R $$ NCZ045>047-081-094-103-104-251200- CENTRAL COAST CITY SKY/WX TMP DP RH WIND PRES REMARKS FRISCO CLOUDY 74 68 81 NE8 30.10R $$ NCZ095-097-098-100-101-251200- SOUTHERN COAST CITY SKY/WX TMP DP RH WIND PRES REMARKS BEAUFORT CLOUDY 74 71 91 N9 30.09R CEDAR ISLAND NOT AVBL JACKSONVILLE MOCLDY 72 69 90 NE7 30.10R PINEY ISLAND CLOUDY N/A N/A N/A N9 30.11R WILMINGTON CLEAR 70 69 97 N5 30.09R $$ NCZ011>013-027>030-043-044-078>080-089-090>093-098-251200- COASTAL PLAIN CITY SKY/WX TMP DP RH WIND PRES REMARKS AHOSKIE DRIZZLE 67 66 97 N3 30.15R CLINTON PTCLDY 72 72 99 CALM 30.12R FOG ELIZABETHTOWN CLOUDY 72 72 100 CALM 30.11R FOG GOLDSBORO CLOUDY 72 72 100 NE10 30.11R GREENVILLE CLOUDY 72 68 88 NE5 30.14R HAVELOCK CLOUDY 74 68 81 N10 30.11R KENANSVILLE CLOUDY 72 70 94 CALM 30.12R FOG KINSTON CLOUDY 72 70 94 N6 30.13R NEW BERN CLOUDY 72 67 84 NE9 30.12R RICHLANDS CLOUDY 70 70 100 N6 30.11R FOG ROCKY MOUNT CLOUDY 70 68 93 NE6 30.14R WASHINGTON CLOUDY 69 67 92 N3 30.13R WHITEVILLE NOT AVBL $$ AMZ130-135-150-152-154-156-158-170-250-252-270-ANZ085-086-088-633-658-670-251200- MARINE OBSERVATIONS STATION/POSITION TIME TEMP WIND PRES WAVE SWELL AIR SEA DIR/SP/G HT/PER HT/PER (UTC) (F) (DEG/KT/KT) (MB) (FT/S) (FT/S) CHESAPEAKE LIGHT NOT AVBL 64 E VA BEACH 1050 71 74 30/ 16/ 19 1019.3 6/11 3/11 DUCK 1100 71 77 30/ 16/ 20 1019.8 2 E DUCK 1041 76 N/A 5/10 2/11 OREGON INLET 1100 70 78 360/ 9/ 13 1019.9 13E OREGON INLT 1030 77 N/A 5/10 3/10 HATTERAS CG 1100 75 81 20/ 11/ 17 1018.8 DIAMOND BUOY 1050 76 85 30/ 14/ 17 1018.0 6/11 5/11 CAPE LOOKOUT 1100 77 50/ 11/ 13 1018.5 BEAUFORT LAB 1100 74 80 20/ 8/ 9 1018.5 30 SE NEW RVR IN 1108 79 82 50/ 10/ 14 1018.3 30 SE NEW RVR IN 1055 82 N/A 4/12 2/12 27 SE WRIGHTSVLE 1108 79 81 40/ 14/ 17 1018.3 5 SE WRIGHTSVLE 1108 79 81 70/ 12/ 16 1019.3 225 S CAPE HAT 1050 81 83 30/ 6/ 6 1016.2 4/10 3/10 41 SE CHARLESTON 1050 80 82 50/ 12/ 14 1016.3 3/10 3/10 $$

USA.gov is the U.S. government's official web portal to all federal, state and local government web resources and services.